Change the Weather History Date:

Friday, June 29, 2012

  Actual Average Record
Temperature  
Mean Temperature 72 °F 69 °F  
Max Temperature 89 °F 81 °F 100 °F (1931)
Min Temperature 55 °F 57 °F 43 °F (1895)
Degree Days  
Heating Degree Days 0 1  
Month to date heating degree days 30 77  
Since 1 June heating degree days 30 77  
Since 1 July heating degree days 6746 8531  
Cooling Degree Days 7 5  
Month to date cooling degree days 140 90  
Year to date cooling degree days 191 115  
Since 1 June cooling degree days 140 90  
Growing Degree Days 22 (Base 50)    
Moisture  
Dew Point 58 °F    
Average Humidity 61    
Maximum Humidity 93    
Minimum Humidity 29    
Precipitation  
Precipitation 0.00 in 0.13 in 2.62 in (1971)
Month to date precipitation 2.36 4.03  
Year to date precipitation 16.68 12.34  
Snow  
Snow 0.00 in 0.00 in 0.00 in ()
Month to date snowfall 0.0 0.0  
Since 1 June snowfall 0.0 0.0  
Since 1 July snowfall 27.4 45.7  
Snow Depth 0.00 in    
Sea Level Pressure  
Sea Level Pressure 29.87 in    
Wind  
Wind Speed 4 mph (West)    
Max Wind Speed 13 mph    
Max Gust Speed 17 mph    
Visibility 10 miles    
Events      
T = Trace of Precipitation, MM = Missing Value Source: NWS Daily Summary

Daily Weather History Graph

Daily Weather History Graph

Search for Another Location

Airport or City:

Trip Planner

Search our weather history database for the weather conditions in past years. The results will help you decide how hot, cold, wet, or windy it might be!

Date:

Astronomy

Jun. 29, 2012 Rise Set
Actual Time 5:30 AM CDT 9:09 PM CDT
Civil Twilight 4:52 AM CDT 9:46 PM CDT
Nautical Twilight 4:02 AM CDT 10:37 PM CDT
Astronomical Twilight 2:53 AM CDT 11:45 PM CDT
Moon 4:50 PM CDT (6/29) 1:49 AM CDT (6/29)
Length of Visible Light 16h 54m
Length of Day
15h 38m
Waxing Gibbous, 78% of the Moon is Illuminated
Jun 29
Waxing Gibbous
Jul 3
Full
Jul 10
Last Quarter
Jul 18
New
Jul 26
First Quarter

Hourly Weather History & Observations

Time (CDT) Temp. Heat Index Dew Point Humidity Pressure Visibility Wind Dir Wind Speed Gust Speed Precip Events Conditions
12:53 AM 61.0 °F - 57.0 °F 87% 29.92 in 10.0 mi Calm Calm - N/A   Clear
1:53 AM 60.1 °F - 55.9 °F 86% 29.91 in 10.0 mi Calm Calm - N/A   Clear
2:53 AM 57.9 °F - 55.0 °F 90% 29.90 in 10.0 mi Calm Calm - N/A   Clear
3:53 AM 57.2 °F - 55.4 °F 94% 29.90 in 10.0 mi Calm Calm - N/A   Clear
4:53 AM 55.0 °F - 54.0 °F 96% 29.91 in 10.0 mi Calm Calm - N/A   Clear
5:53 AM 55.9 °F - 54.0 °F 93% 29.91 in 10.0 mi Calm Calm - N/A   Clear
6:53 AM 62.1 °F - 57.9 °F 86% 29.90 in 10.0 mi Calm Calm - N/A   Clear
7:53 AM 69.1 °F - 60.1 °F 73% 29.91 in 10.0 mi Calm Calm - N/A   Clear
8:53 AM 77.0 °F - 60.1 °F 56% 29.89 in 10.0 mi Calm Calm - N/A   Clear
9:53 AM 82.0 °F 81.6 °F 55.9 °F 41% 29.87 in 10.0 mi SSW 4.6 mph - N/A   Clear
10:53 AM 84.9 °F 83.6 °F 55.0 °F 36% 29.88 in 10.0 mi SSW 5.8 mph - N/A   Clear
11:53 AM 84.9 °F 83.9 °F 57.0 °F 38% 29.88 in 10.0 mi SSW 10.4 mph - N/A   Clear
12:53 PM 87.1 °F 85.7 °F 55.9 °F 35% 29.90 in 10.0 mi WSW 11.5 mph - N/A   Clear
1:53 PM 87.1 °F 85.1 °F 54.0 °F 32% 29.87 in 10.0 mi West 8.1 mph - N/A   Clear
2:53 PM 89.1 °F 86.7 °F 53.1 °F 29% 29.85 in 10.0 mi West 6.9 mph - N/A   Clear
3:53 PM 89.1 °F 86.9 °F 54.0 °F 30% 29.84 in 10.0 mi WNW 12.7 mph - N/A   Clear
4:53 PM 88.0 °F 86.7 °F 57.0 °F 35% 29.83 in 10.0 mi WNW 9.2 mph - N/A   Clear
5:53 PM 87.1 °F 86.5 °F 59.0 °F 39% 29.83 in 10.0 mi West 8.1 mph - N/A   Clear
6:53 PM 84.9 °F 84.8 °F 60.1 °F 43% 29.80 in 10.0 mi NNW 3.5 mph - N/A   Clear
7:53 PM 82.0 °F 82.7 °F 61.0 °F 49% 29.80 in 10.0 mi WNW 5.8 mph - N/A   Clear
8:53 PM 77.0 °F - 64.0 °F 64% 29.80 in 10.0 mi WSW 3.5 mph - N/A   Clear
9:53 PM 71.1 °F - 64.0 °F 78% 29.81 in 10.0 mi Calm Calm - N/A   Clear
10:53 PM 68.0 °F - 64.0 °F 87% 29.82 in 10.0 mi Calm Calm - N/A   Clear
11:53 PM 66.9 °F - 63.0 °F 87% 29.83 in 10.0 mi Calm Calm - N/A   Clear